Showing default

HULIANWANG DIGUI-39, 64960

Orbit data source: Space-Track

HULIANWANG DIGUI-39, 64960 is a payload satellite owned by Zhongguo Xingwang (CN) in LEO that was launched on Sun, 27 Jul 2025 UTC via a CHANG ZHENG 6A launch vehicle from the Taiyaun Space Center, China (TSC). Payload-class satellites include a variety of spacecraft equipped with specific instruments for various scientific and technological missions. These include communications satellites like Starlink; space stations such as the ISS; scientific satellites like the Hubble; Earth observation satellites from companies like Planet Labs, Umbra, and HawkEye 360; GPS; miniature CubeSats for education and research; and military/defense satellites.

Loading next visibility...
Identifier
64960, 2025-159E
Orbit
LEO
Country
Flag of CNCN / PRC
Related business
Manufacturer
CAST
Mission
Operational Civil Communications
Bus & Motor
XINGWANG C, Unknown motor
Mass
~700 kg wet, ~700 kg dry
Launch date (UTC)
2025-07-27 (11 months ago)
Launch vehicle
CHANG ZHENG 6A
Launch site
Taiyaun Space Center, China (TSC)
Object type
Payload
Rocket body
Debris
Shape & HBR
Box + 2 Pan, 2.7 m
Radar Cross Section
5.935 m², Large (>1 m²)

Expand to show TLE details & history
Last TLE update: 12 hours ago

TLE from 12 hours ago
0 HULIANWANG DIGUI-39
1 64960U 25159E   26171.39781914  .00000061  00000-0  10888-3 0  9991
2 64960  86.4943 281.3075 0001782  97.9878 262.1458 13.24407455 43553
Epoch: 2026-06-20T09:32Z
TLE epoch observation values (Epoch: 2026-06-20T09:32:51.573Z)
Latitude
-0.00006°
Longitude
-130.52041°
Altitude
1,171.01 km
Speed
7.268 km/s
True Right ascension
18h 45m 13s
True Declination
0° 00' 00"
Sunlit
Object was in full shadow at epoch
Visualization orbit readout
Latitude
Unknown
Longitude
Unknown
Altitude
Unknown
Speed
Unknown
Apparent Right ascension
Unknown
Apparent Declination
Unknown
Sunlit
N/A
Visualization observer readout
Local Sidereal Time
08:46:33
Azimuth
Unknown
Elevation
Unknown
Doppler factor
Unknown
Orbital elements
Apogee altitude
1,166.396 km
Perigee altitude
1,163.708 km
Semi-major axis
7,543.189 km
Eccentricity
0.00018
Inclination
86.4943°
RAAN
281.3075°
Arg. of periapsis
97.9878°
True anomaly
262.12557°
Mean anomaly
262.1458°
Eccentric anomaly
262.13569°
Mean motion
3.31292 °/min
Orbital period
108.67 mins
BSTAR
0.00010888
Loading maneuver chart data...
Computing Atmospheric mass density...
Loading historical data...
Loading historical data...
Loading historical data...
Loading historical data...
Loading historical data...
Loading historical data...
Loading historical data...

Documentation

Showing up to 5 results
|